Terminal Aerodrome Forecast
Issued by NWS

Home | Current Version | Previous Version | Text Only | Print | Product List | Glossary On
Versions: 1 2 3 4 5 6 7 8 9 10 11 12
000
FTUS44 KEPZ 051138
TAFLRU
TAF
KLRU 051138Z 0512/0612 33007KT P6SM SCT120 BKN250
     FM051800 27010KT P6SM SCT100 BKN180
     FM060300 29008KT P6SM VCSH SCT080 BKN150=

USA.gov is the U.S. government's official web portal to all federal, state and local government web resources and services.